Terminal Aerodrome Forecast
Issued by NWS St Louis, MO

Home | Current Version | Previous Version | Text Only | Print | Product List | Glossary On
Versions: 1 2 3 4 5 6 7 8 9 10 11 12 13 14 15 16 17 18 19 20 21 22 23 24 25 26 27 28 29 30 31 32
000
FTUS43 KLSX 171500 AAB
TAFSTL
TAF AMD
KSTL 171500Z 1715/1818 30005KT 5SM BR VCSH BKN004
     FM171800 32006KT P6SM VCSH OVC008
     FM180300 35006KT P6SM BKN012
     FM180800 32003KT 3SM BR SCT025=

USA.gov is the U.S. government's official web portal to all federal, state and local government web resources and services.